Moses Lake, WA

9:29 AM PST on November 24, 2017 (GMT -0800)
Grant County International

Weather History for KMWH - April, 2014

Change the Weather History Date:

Monday, April 21, 2014

  Actual Average Record
Temperature  
Mean Temperature 55 °F 51 °F  
Max Temperature 67 °F 65 °F 88 °F (1986)
Min Temperature 42 °F 38 °F 17 °F (1985)
Degree Days  
Heating Degree Days 10 14  
Month to date heating degree days 256 334  
Since 1 July heating degree days 5401 5506  
Cooling Degree Days 0 0  
Month to date cooling degree days 0 0  
Year to date cooling degree days 0 0  
Growing Degree Days 4 (Base 50)    
Moisture  
Dew Point 35 °F    
Average Humidity 54    
Maximum Humidity 77    
Minimum Humidity 31    
Precipitation  
Precipitation 0.05 in 0.02 in 0.30 in (1980)
Month to date precipitation 0.10 0.50  
Year to date precipitation 1.96 3.22  
Sea Level Pressure  
Sea Level Pressure 29.96 in    
Wind  
Wind Speed 8 mph (NNW)    
Max Wind Speed 25 mph    
Max Gust Speed 31 mph    
Visibility 10 miles    
Events Rain    
T = Trace of Precipitation, MM = Missing Value Source: NWS Daily Summary

Daily Weather History Graph

Daily Weather History Graph

Search for Another Location

Airport or City:

Trip Planner

Search our weather history database for the weather conditions in past years. The results will help you decide how hot, cold, wet, or windy it might be!

Date:

Astronomy

Apr. 21, 2014 Rise Set
Actual Time 5:57 AM PDT 7:54 PM PDT
Civil Twilight 5:25 AM PDT 8:27 PM PDT
Nautical Twilight 4:45 AM PDT 9:08 PM PDT
Astronomical Twilight 4:00 AM PDT 9:52 PM PDT
Moon 1:34 AM PDT (4/21) 11:25 AM PDT (4/21)
Length of Visible Light 15h 02m
Length of Day
13h 56m
Waning Gibbous, 56% of the Moon is Illuminated
Apr 21
Waning Gibbous
Apr 22
Last Quarter
Apr 28
New
May 6
First Quarter
May 14
Full

Hourly Weather History & Observations

Time (PDT) Temp. Windchill Dew Point Humidity Pressure Visibility Wind Dir Wind Speed Gust Speed Precip Events Conditions
12:52 AM 45.0 °F 41.2 °F 30.0 °F 56% 30.15 in 10.0 mi NNE 6.9 mph - N/A   Clear
1:52 AM 43.0 °F 38.8 °F 30.0 °F 60% 30.14 in 10.0 mi NNE 6.9 mph - N/A   Clear
2:52 AM 43.0 °F 37.7 °F 30.0 °F 60% 30.13 in 10.0 mi North 9.2 mph - N/A   Clear
3:52 AM 43.0 °F 38.8 °F 30.9 °F 62% 30.12 in 10.0 mi North 6.9 mph - N/A   Clear
4:52 AM 42.1 °F 37.1 °F 30.9 °F 65% 30.10 in 10.0 mi North 8.1 mph - N/A   Clear
5:52 AM 43.0 °F 38.2 °F 30.9 °F 62% 30.08 in 10.0 mi North 8.1 mph - N/A   Clear
6:52 AM 45.0 °F 40.1 °F 32.0 °F 60% 30.06 in 10.0 mi North 9.2 mph - N/A   Partly Cloudy
7:52 AM 48.0 °F - 32.0 °F 54% 30.07 in 10.0 mi North 9.2 mph - N/A   Partly Cloudy
8:52 AM 50.0 °F - 33.1 °F 52% 30.07 in 10.0 mi NNW 9.2 mph - N/A   Scattered Clouds
9:52 AM 53.1 °F - 32.0 °F 45% 30.04 in 10.0 mi North 11.5 mph - N/A   Overcast
10:13 AM 54.0 °F - 33.1 °F 45% 29.97 in 10.0 mi ENE 19.6 mph - N/A   Mostly Cloudy
10:52 AM 57.9 °F - 33.1 °F 39% 30.00 in 10.0 mi North 8.1 mph - N/A   Clear
11:52 AM 60.1 °F - 33.1 °F 36% 29.98 in 10.0 mi WNW 3.5 mph - N/A   Overcast
12:52 PM 62.1 °F - 33.1 °F 34% 29.96 in 10.0 mi SW 8.1 mph - N/A   Clear
1:52 PM 62.1 °F - 34.0 °F 35% 29.95 in 10.0 mi SW 9.2 mph - N/A   Overcast
2:52 PM 64.0 °F - 34.0 °F 33% 29.92 in 10.0 mi SSW 4.6 mph - N/A   Partly Cloudy
3:52 PM 64.0 °F - 33.1 °F 31% 29.88 in 10.0 mi WSW 6.9 mph - N/A   Clear
4:52 PM 66.0 °F - 35.1 °F 32% 29.84 in 10.0 mi SE 6.9 mph - N/A   Clear
5:52 PM 66.9 °F - 36.0 °F 32% 29.82 in 10.0 mi SE 11.5 mph - N/A   Clear
6:52 PM 64.0 °F - 36.0 °F 35% 29.78 in 10.0 mi SE 8.1 mph - N/A   Clear
7:52 PM 62.1 °F - 37.0 °F 39% 29.77 in 10.0 mi Calm Calm - N/A   Clear
8:52 PM 62.1 °F - 36.0 °F 38% 29.78 in 10.0 mi SW 9.2 mph - N/A   Overcast
9:52 PM 55.0 °F - 46.0 °F 72% 29.80 in 8.0 mi SW 4.6 mph - 0.02 in Rain Light Rain
10:52 PM 53.1 °F - 46.9 °F 80% 29.73 in 10.0 mi NW 8.1 mph - 0.01 in Rain Light Rain
11:52 PM 52.0 °F - 48.0 °F 86% 29.75 in 10.0 mi West 12.7 mph - 0.02 in Rain Light Rain